Theta_e
314 313 312 312 311 310 309 309 310 311 314 314 314 318 325 326 326 325 325 325 322 321 322 323 321 318 317 318 318 320 322 321 322 323 323 325 324 322 322 321 321 322 321 320 322 322 322 321 320 321 321 321 322 322 322 321 321 321 322 324 325 327 328 321 318 324 325 324 325 324 325 327 327 330 331 330 330 331 329 330 331 327 325 326 326 330 341
312 312 312 311 311 310 311 310 310 311 313 313 313 319 323 322 322 324 324 325 323 323 323 324 323 321 319 319 319 320 321 320 322 323 322 324 324 322 322 321 321 321 320 321 322 322 320 319 321 322 321 321 323 322 322 321 322 323 326 326 323 323 326 324 321 322 323 325 327 325 324 325 326 329 330 329 329 331 332 332 333 331 326 324 327 331 339
311 312 312 311 310 311 311 311 311 312 312 313 314 318 322 322 325 325 324 325 324 324 324 323 323 323 322 321 320 320 322 322 322 323 323 323 323 323 322 321 322 321 321 320 321 322 321 321 323 323 321 322 322 321 322 322 322 324 328 328 323 323 326 324 320 318 319 321 321 320 322 322 323 325 325 326 327 329 332 332 331 331 328 324 327 332 340
310 311 311 311 311 310 311 311 311 311 312 313 313 316 321 323 327 328 326 326 325 325 325 324 323 323 323 323 322 321 323 325 324 323 324 323 323 324 323 323 322 321 321 321 321 322 321 322 325 324 323 322 321 322 322 320 326 332 331 326 323 325 326 323 322 321 320 321 322 325 324 319 317 320 321 324 327 328 333 332 330 333 330 325 331 337 338
310 310 310 311 310 310 311 311 310 311 312 312 313 317 322 325 328 329 329 330 328 326 326 324 324 324 323 323 322 321 323 327 327 323 323 323 322 322 323 323 322 321 322 321 320 322 322 323 324 323 324 323 322 323 320 323 337 342 331 325 327 329 325 323 324 323 322 322 323 324 323 318 316 318 319 323 327 327 327 325 331 340 335 329 338 343 340
309 310 310 310 310 310 310 311 310 310 312 313 315 320 324 326 329 328 328 330 331 329 328 327 326 325 324 323 320 320 323 326 328 325 323 323 323 323 324 324 323 323 323 322 322 322 322 323 324 323 325 326 324 323 321 325 339 339 325 324 329 328 325 324 321 321 322 322 323 323 324 322 320 320 321 322 326 326 323 322 331 341 336 333 340 345 346
309 309 309 309 309 309 310 310 310 311 311 314 317 321 323 326 329 328 327 328 329 329 327 328 329 328 329 329 324 320 321 323 325 326 325 324 322 323 323 324 323 323 324 325 327 326 322 322 325 327 327 326 326 327 324 322 329 328 323 327 329 326 326 328 322 320 321 322 323 324 322 320 319 320 323 324 325 325 322 324 333 338 336 338 342 346 351
308 308 308 308 309 309 309 310 310 311 312 316 320 322 324 328 329 328 328 329 330 329 328 328 328 329 332 333 330 324 322 322 323 325 325 325 324 323 324 324 324 323 324 326 326 326 325 325 327 327 328 328 328 329 327 325 325 324 325 328 328 326 329 329 322 319 320 322 323 324 323 322 320 322 328 328 325 326 325 327 334 335 336 341 342 344 350
308 308 308 308 308 309 309 310 311 311 313 319 323 323 325 327 328 326 327 330 331 330 329 328 328 329 330 331 331 327 327 326 326 326 326 326 326 325 324 324 324 324 324 325 324 324 325 327 327 325 327 328 329 329 328 327 326 325 326 328 327 327 330 329 323 319 319 321 321 322 323 321 321 325 330 330 327 328 327 329 334 334 335 338 338 341 348
308 308 308 307 308 309 309 310 312 312 313 317 320 321 323 326 326 325 327 330 331 328 328 328 328 328 328 329 329 327 327 328 327 329 329 326 326 327 326 326 326 326 326 325 324 323 323 324 324 323 325 326 325 326 326 325 326 325 326 329 329 329 327 325 323 320 319 321 320 321 321 319 321 328 331 329 330 333 331 332 335 336 338 342 343 345 349
308 308 308 308 309 310 309 310 312 312 313 315 316 318 321 323 325 325 328 331 331 328 328 330 329 328 327 327 328 327 326 326 325 328 329 326 326 327 327 327 329 331 329 325 324 325 323 323 323 323 324 323 322 324 323 323 325 326 328 331 332 330 328 327 326 320 318 321 322 322 320 319 323 333 332 327 331 335 334 334 336 339 343 347 348 349 350
308 308 308 308 309 309 309 310 311 312 313 313 314 316 318 321 324 326 329 332 332 329 329 330 329 328 328 328 328 328 327 325 324 326 326 326 327 328 328 329 331 333 330 326 326 326 323 323 324 323 323 322 322 323 321 322 325 325 327 330 330 329 328 328 326 321 320 323 322 319 320 324 330 332 328 328 330 333 336 338 339 341 345 347 347 347 347
308 308 308 308 309 309 309 309 310 312 313 312 313 315 317 319 323 327 329 331 331 329 327 327 326 326 327 327 326 326 326 326 326 326 325 326 327 327 328 328 329 330 328 326 327 327 329 330 329 327 326 324 323 323 322 323 323 322 322 325 328 330 330 327 324 323 323 322 319 318 321 329 334 331 328 331 333 332 335 339 341 342 344 347 347 344 344
308 308 308 308 309 309 309 310 310 311 312 312 312 314 316 319 323 326 327 328 329 327 325 326 326 325 324 325 325 326 326 325 327 327 326 326 326 326 327 327 328 328 327 328 331 332 334 334 330 327 328 326 323 324 325 322 322 323 323 324 327 332 334 330 323 321 320 316 316 320 321 324 331 333 332 332 332 333 338 340 341 342 343 345 346 343 343
308 308 308 308 308 308 309 310 310 311 312 312 312 313 316 319 322 323 324 326 328 327 324 326 326 323 323 323 324 327 328 327 328 327 326 325 325 326 326 324 325 326 325 329 335 336 333 329 323 320 321 320 319 321 324 323 322 323 324 327 328 329 336 335 325 321 322 317 317 320 319 321 330 336 334 331 328 331 339 344 343 343 341 343 345 344 343
308 308 308 308 308 308 308 309 310 311 312 312 312 313 315 317 321 322 323 325 327 326 324 324 323 321 322 323 323 326 328 329 329 328 328 328 327 325 325 323 324 325 325 329 337 337 333 328 322 319 320 320 319 321 324 325 325 324 324 328 328 328 334 336 327 322 321 318 317 319 318 324 337 339 333 329 328 331 336 338 339 343 342 342 344 344 343
308 308 308 308 308 308 309 309 310 310 311 312 312 312 314 316 318 321 322 323 326 326 323 322 321 320 323 326 326 326 327 328 330 331 331 330 326 325 326 326 325 324 323 330 336 334 329 328 326 322 322 323 322 323 325 324 322 323 326 330 333 335 336 332 324 320 320 319 317 315 318 331 344 340 333 329 329 334 334 329 334 342 342 341 344 343 343
307 308 308 308 308 308 309 309 309 310 311 312 312 312 313 316 318 319 320 322 324 325 323 321 321 323 325 326 326 325 325 326 329 332 331 329 329 329 326 325 327 326 324 330 336 333 328 328 327 323 323 326 324 323 326 326 322 323 329 331 332 334 335 330 322 318 319 321 317 316 326 341 343 338 340 338 334 334 330 329 339 346 343 342 344 343 342
307 308 308 308 308 308 309 309 309 309 310 311 312 312 313 316 319 319 319 321 323 324 323 322 323 324 323 323 324 324 323 324 328 331 330 330 331 328 325 326 329 328 328 331 334 332 327 326 328 325 323 326 327 325 327 328 325 326 329 327 326 327 328 328 325 321 320 321 318 319 334 347 341 337 342 341 339 338 335 338 347 348 344 344 344 343 343
308 308 308 308 308 308 309 309 308 309 310 311 312 312 313 315 318 319 319 320 321 321 322 321 322 323 321 321 322 322 322 322 325 328 330 330 329 327 329 331 330 330 334 334 331 330 327 325 329 326 322 325 331 330 328 329 332 334 331 326 329 331 325 322 325 326 324 322 319 321 333 343 339 338 342 341 343 347 346 345 347 345 345 345 344 343 344
308 309 309 309 308 308 309 309 308 308 310 311 311 312 313 316 319 319 319 319 319 320 321 320 320 321 319 319 319 319 319 319 321 324 326 326 328 329 331 332 330 330 334 332 328 328 327 327 329 326 323 329 336 334 328 326 331 337 334 328 331 332 327 324 328 331 326 323 327 335 345 348 341 340 343 342 345 350 348 346 346 346 345 345 344 345 344
307 308 308 308 309 309 309 309 309 308 310 311 311 311 313 316 318 318 318 319 319 319 320 319 319 319 318 318 318 317 317 317 317 320 322 323 325 328 330 332 331 330 330 332 335 337 333 333 335 333 331 335 338 337 333 327 326 332 333 330 329 333 337 337 336 335 331 331 339 346 348 346 341 339 343 343 343 345 344 345 347 346 344 343 345 346 344
307 307 308 308 309 309 309 309 309 309 310 311 311 312 313 315 316 316 317 318 318 318 318 318 319 319 318 318 317 316 317 316 316 318 319 321 323 325 328 330 329 328 331 336 339 340 337 336 337 336 336 337 335 335 334 329 327 332 334 331 331 337 344 344 340 338 334 335 342 344 341 339 337 337 342 343 341 341 342 343 346 345 343 343 344 343 342
307 308 308 308 309 308 308 309 309 309 310 310 311 311 312 313 314 315 316 317 317 318 319 320 320 320 320 319 318 318 317 317 317 317 317 320 321 322 326 328 326 328 336 337 335 336 336 335 335 335 336 335 331 331 330 328 328 330 330 331 333 334 336 336 337 337 332 330 338 342 339 338 338 339 342 343 342 343 344 345 346 345 343 343 342 342 340
308 308 308 308 309 309 308 308 308 308 309 311 311 312 312 313 314 315 316 317 317 318 319 320 320 319 319 319 320 321 320 318 318 317 316 317 318 319 322 324 324 327 333 333 331 334 336 335 335 335 335 334 330 331 333 336 338 335 331 333 336 334 332 334 334 335 335 337 340 342 340 340 341 342 344 344 343 345 346 345 345 345 343 341 340 339 338
308 309 309 309 309 309 308 308 308 308 309 310 311 312 312 313 313 314 315 317 317 317 318 318 318 317 319 319 319 320 320 320 319 318 317 317 317 317 319 321 322 325 328 328 330 333 334 335 334 334 335 334 332 335 339 341 343 339 335 338 339 334 334 336 333 332 336 340 341 341 342 344 343 343 344 345 345 345 345 343 344 343 341 339 338 337 335
309 309 308 309 309 308 308 308 308 309 309 309 310 311 312 312 312 313 314 316 316 317 319 318 318 317 317 317 316 316 318 320 320 320 319 318 317 317 318 320 323 326 327 328 329 331 333 333 332 332 333 332 332 339 343 341 337 334 335 338 335 332 335 338 334 334 340 345 347 347 346 346 346 345 344 344 344 344 344 343 342 342 340 339 338 335 333
309 309 308 309 309 308 308 308 309 310 310 309 309 310 311 312 312 312 313 314 315 317 317 317 316 316 315 314 314 315 317 318 319 320 320 320 319 318 318 319 323 325 327 329 330 331 332 332 330 330 331 329 331 338 341 336 332 332 333 333 332 335 342 342 338 340 344 346 348 348 346 347 347 345 343 343 343 343 343 343 342 341 339 338 336 335 334
308 308 308 308 309 309 308 308 309 310 310 309 310 311 312 312 312 312 313 314 315 315 315 315 316 316 316 316 316 316 317 318 318 319 319 320 321 320 319 320 323 324 326 328 331 332 331 330 329 329 330 329 331 334 335 333 330 330 334 336 336 340 345 344 343 346 346 344 346 348 347 347 346 343 342 343 342 341 342 341 340 341 338 336 335 335 333
308 308 308 308 308 308 309 308 309 310 309 310 311 311 313 314 314 313 313 314 314 315 315 315 316 316 316 315 315 315 315 316 317 319 319 320 320 320 321 322 324 325 325 327 330 331 331 329 328 328 329 331 332 331 331 331 330 331 340 346 345 343 345 345 345 348 349 347 347 347 345 345 345 342 341 342 340 340 341 340 338 338 336 333 334 333 332
309 308 308 308 308 308 309 309 309 309 309 310 311 312 314 316 316 314 314 314 315 315 315 316 316 316 316 316 316 315 315 315 315 318 319 318 319 319 320 322 324 326 328 329 330 330 329 330 329 329 330 333 333 331 330 330 330 335 343 346 344 343 344 344 343 344 346 346 344 343 343 344 342 341 342 341 338 338 340 339 337 336 334 331 331 331 331
309 309 308 308 309 309 309 310 310 309 310 311 311 312 314 315 314 314 314 315 315 316 316 316 317 317 318 319 319 318 318 316 316 318 321 321 321 321 320 321 324 327 328 330 331 330 329 330 330 329 332 335 333 331 332 330 330 337 343 343 342 344 346 345 342 341 342 343 342 342 343 342 341 342 343 341 337 336 338 338 336 334 333 331 330 330 329
309 309 309 309 309 309 309 310 310 310 310 311 311 311 312 312 312 313 313 314 315 316 317 317 317 318 319 319 320 320 319 318 317 319 322 324 324 323 324 323 324 326 327 328 330 329 328 329 330 330 334 337 333 329 332 333 331 336 341 341 340 344 347 346 341 339 341 344 343 342 343 342 341 341 339 338 337 336 336 336 335 333 333 332 332 333 332
309 309 309 309 309 309 309 309 310 310 310 310 311 311 311 311 312 312 313 314 316 316 317 317 318 319 319 318 320 322 321 320 321 321 323 326 325 324 327 328 327 328 327 327 328 329 329 329 330 330 333 337 333 330 332 334 335 338 340 339 340 343 344 343 341 339 341 343 342 342 343 343 341 338 337 338 338 337 335 335 334 333 334 334 334 334 333
309 309 309 309 309 309 309 309 309 310 311 310 311 311 311 312 312 312 312 314 316 317 317 318 318 318 318 318 322 325 322 322 325 325 325 327 326 324 327 331 330 329 326 326 328 330 330 329 329 328 330 332 333 332 332 333 337 341 341 340 341 341 341 341 343 344 344 342 340 341 342 341 339 339 339 339 338 337 337 336 334 334 335 336 335 334 333
308 309 309 309 308 309 309 310 310 311 311 312 313 313 313 313 313 312 312 314 316 317 318 318 319 320 320 321 324 325 323 325 329 328 326 328 328 326 326 329 330 328 326 326 328 330 330 330 329 328 328 329 331 335 337 338 340 342 341 341 342 342 341 343 344 345 346 344 343 342 341 339 339 340 340 339 338 338 337 336 336 335 336 336 337 337 335
308 309 309 309 309 309 310 311 311 311 312 313 314 314 313 313 314 314 314 315 315 315 316 317 318 319 320 321 324 324 324 328 330 328 328 330 330 328 325 327 329 329 326 327 329 328 329 331 330 329 330 331 335 342 347 346 346 346 342 341 344 345 345 346 345 343 343 344 345 344 341 339 340 341 340 339 338 337 337 337 337 337 336 336 336 336 335
308 309 309 310 311 311 312 313 313 312 313 313 313 314 314 314 315 315 315 315 316 316 315 315 316 317 317 320 322 323 325 329 330 331 332 331 331 329 327 327 330 329 327 328 329 328 328 330 330 329 330 333 339 346 348 346 346 347 346 344 344 345 346 347 347 343 341 342 344 343 341 340 341 341 339 338 338 338 337 336 335 335 334 333 333 333 333
308 309 310 311 311 312 314 315 314 313 313 313 313 315 315 315 316 317 316 316 317 317 316 315 316 316 316 318 320 320 322 325 328 331 333 332 331 331 331 331 331 330 328 329 330 328 328 329 330 329 330 333 338 344 347 346 345 346 346 345 344 345 347 347 347 345 341 340 341 344 344 342 340 340 340 339 338 338 336 334 333 334 333 332 332 332 332
309 310 311 312 312 312 314 315 313 313 314 315 314 315 317 316 317 318 318 317 317 318 317 317 317 316 316 317 319 321 321 323 328 332 333 332 331 332 333 332 330 330 329 330 331 330 329 330 331 331 331 334 338 342 346 346 344 343 345 345 345 345 347 346 345 342 340 339 339 340 340 340 340 339 339 338 337 337 337 335 334 334 334 333 333 333 333
310 311 312 312 311 311 312 314 314 313 315 316 316 316 318 318 318 317 318 320 319 318 318 318 319 318 318 318 319 321 321 323 329 332 332 331 331 331 332 332 330 329 330 331 333 333 332 331 330 330 332 337 343 344 343 343 343 343 345 346 346 345 345 345 342 338 336 337 338 336 333 333 334 336 336 335 335 336 336 336 335 335 334 334 333 334 334
310 310 310 310 311 311 313 315 315 314 315 317 317 317 317 318 319 319 319 320 320 320 320 319 319 321 322 319 319 321 322 325 329 331 330 331 331 331 331 332 331 329 330 331 332 334 335 334 331 329 332 341 348 346 341 340 342 343 345 346 345 343 343 344 343 339 334 334 335 334 331 330 331 334 335 334 333 333 334 334 334 334 334 334 334 335 335
309 310 310 311 312 313 314 315 315 316 316 317 317 318 318 318 319 320 320 319 319 320 322 321 320 321 322 321 323 325 324 325 329 332 331 332 332 330 330 330 329 329 330 331 331 332 333 332 330 331 336 343 345 343 341 340 340 341 344 346 342 338 336 338 340 338 335 333 333 332 331 331 332 334 335 333 333 334 334 333 333 334 334 334 334 334 333
309 310 311 312 313 314 315 316 317 317 317 317 317 318 318 318 318 319 321 322 322 321 322 323 324 324 326 327 329 329 327 327 330 332 332 331 330 329 329 329 329 329 329 330 330 330 330 329 329 335 343 346 343 342 343 342 340 341 345 345 342 337 335 335 337 338 339 338 336 335 333 332 332 333 333 332 333 335 334 332 333 335 334 333 333 333 332
309 311 312 313 314 314 314 316 317 317 317 317 317 317 318 318 319 321 322 323 323 322 323 327 328 328 328 330 330 329 328 328 328 329 330 329 329 328 327 329 331 330 329 328 329 329 328 328 331 338 343 345 342 343 344 344 342 343 344 344 343 342 340 340 341 342 343 340 338 336 334 332 332 332 331 331 333 335 334 333 334 334 332 332 333 331 329
310 311 311 313 314 313 313 315 316 317 317 317 316 316 317 318 320 322 322 322 322 323 325 327 328 327 328 328 329 329 329 327 326 327 329 329 328 328 329 330 330 330 329 329 330 328 328 333 339 341 342 341 342 344 346 346 344 343 343 342 343 343 341 340 341 342 341 338 336 334 332 330 330 331 331 330 332 333 334 334 333 333 332 332 331 328 326
310 310 311 313 314 313 313 314 316 316 316 316 317 319 320 320 320 322 322 322 322 323 324 325 327 328 327 328 329 329 328 326 326 328 328 327 327 329 329 329 328 328 329 330 329 328 330 337 341 340 340 340 341 343 344 343 341 341 342 342 342 342 341 341 341 341 339 337 336 335 333 331 330 331 331 330 330 332 333 334 333 332 332 331 329 326 326
310 310 311 313 314 313 314 314 314 314 315 316 317 322 324 322 320 321 323 323 324 325 324 324 326 328 329 329 328 328 329 329 328 328 327 327 328 329 329 328 328 328 328 328 328 329 334 339 340 338 338 339 340 340 341 340 338 339 340 340 340 341 340 339 340 338 335 334 335 336 334 332 331 330 331 331 330 330 332 333 332 331 332 331 328 326 327
310 310 311 313 313 313 313 314 315 315 316 316 317 320 322 321 320 322 323 324 326 328 327 325 325 327 329 329 328 327 329 329 328 326 327 328 327 327 328 328 329 329 328 327 328 330 335 338 339 338 337 337 336 337 338 337 337 337 338 338 337 338 337 337 336 334 332 331 332 334 333 332 331 330 330 330 329 329 330 331 331 331 331 330 328 327 327
310 310 311 312 312 313 314 314 315 316 318 319 319 320 320 320 321 324 325 325 326 326 325 325 325 325 326 327 326 324 325 326 326 326 327 327 326 326 327 327 327 327 328 330 331 333 335 336 337 337 337 337 336 336 335 334 335 335 335 333 332 334 335 334 333 332 331 330 330 332 332 332 331 330 329 329 329 329 328 329 330 331 330 329 328 328 328
309 310 310 311 312 313 314 315 315 316 318 320 321 320 319 319 322 324 326 327 326 324 323 325 326 325 323 323 324 323 323 324 324 324 325 325 325 325 326 327 328 328 328 329 331 334 336 337 339 340 341 341 340 338 336 337 337 335 332 331 331 332 334 334 332 331 331 330 330 331 331 330 329 329 329 328 328 329 328 328 329 331 330 329 328 328 327
308 310 311 311 311 312 313 314 315 315 315 319 322 322 320 320 321 323 324 325 325 324 324 325 325 324 322 322 323 323 322 323 323 324 324 324 324 326 328 330 331 331 329 328 330 333 336 338 340 342 342 341 339 338 338 339 339 337 333 331 331 331 332 334 333 331 331 331 330 330 329 328 328 328 328 328 328 329 329 328 329 330 330 329 328 328 327
Wind_Speed
23 24 22 23 24 25 27 27 27 30 30 30 29 17 5 1 6 17 12 13 15 4 3 4 3 4 7 9 12 11 10 10 10 9 4 2 3 3 4 4 4 2 2 5 4 3 1 5 3 4 7 7 6 8 8 3 2 3 3 4 4 3 1 3 4 4 5 7 7 6 7 4 6 4 3 4 4 3 4 3 2 1 3 3 1 1 3
22 23 21 21 22 23 25 25 25 26 26 27 23 10 3 4 4 13 15 10 12 5 4 4 4 5 8 11 13 12 11 11 10 8 6 3 2 2 4 4 4 3 3 5 4 2 2 4 3 4 6 4 2 5 7 4 1 3 2 1 2 2 1 3 4 4 6 7 6 8 9 5 2 1 1 2 5 5 3 2 3 1 2 3 1 1 2
21 22 21 20 20 21 23 24 24 24 23 23 17 5 3 6 3 4 10 11 9 4 4 4 5 6 9 11 12 11 10 10 10 6 5 6 4 3 4 4 4 5 4 3 4 2 2 1 3 3 4 3 5 6 7 4 4 5 4 2 2 1 0 3 2 2 3 3 4 4 3 3 2 1 4 4 2 6 5 3 2 1 2 4 1 1 1
20 21 21 20 19 20 22 23 23 22 21 23 17 6 3 4 2 2 5 6 6 4 5 6 6 7 8 8 9 11 10 9 9 9 6 8 7 4 4 5 5 5 5 3 3 4 2 2 1 2 1 1 2 7 8 6 6 7 4 2 2 1 1 1 2 3 3 5 7 7 6 5 5 0 5 6 3 4 5 4 3 4 1 3 1 1 2
20 20 21 20 19 19 20 23 23 21 21 22 15 5 4 2 3 3 3 2 3 4 5 6 7 8 7 5 6 11 12 10 6 8 7 6 7 6 5 7 6 6 6 5 5 5 4 2 2 1 1 1 2 6 6 6 9 7 4 3 3 2 1 3 6 6 7 9 10 10 10 9 7 2 5 3 4 3 1 1 3 5 4 1 2 2 3
19 20 20 20 19 19 20 22 23 21 21 18 9 2 3 3 4 5 7 4 3 3 5 9 9 10 9 5 7 12 12 10 6 4 6 5 5 4 4 6 7 7 7 5 3 4 4 4 4 3 2 2 3 5 4 6 10 7 5 6 5 2 2 3 3 4 6 8 9 10 8 7 7 5 2 2 2 3 5 4 2 7 4 4 4 4 5
18 19 20 20 19 19 19 22 22 22 21 13 3 3 3 3 4 6 9 7 6 7 10 13 12 10 8 5 7 11 12 11 9 5 4 5 6 4 3 6 7 9 9 5 2 0 3 4 4 2 0 3 2 2 3 5 8 7 4 4 5 3 2 2 2 4 7 8 9 9 8 7 8 6 1 1 1 3 6 6 3 7 4 2 4 7 6
17 18 19 19 19 18 19 21 21 22 20 11 3 5 3 4 4 5 7 7 7 7 9 11 10 8 7 6 6 8 10 11 10 8 6 4 5 7 8 8 9 9 8 4 3 4 3 3 3 1 1 3 3 0 2 3 4 5 2 3 4 3 3 3 2 2 5 7 8 8 8 8 7 5 4 7 6 4 5 6 3 5 4 4 6 6 5
17 18 19 18 17 18 18 19 21 21 18 10 3 4 7 9 9 8 5 5 6 7 7 7 7 6 6 6 6 7 9 9 8 8 8 7 5 6 8 9 8 8 9 7 7 8 7 7 6 5 5 5 2 1 3 5 4 3 2 2 3 3 2 2 2 1 4 5 8 9 7 6 6 5 7 8 5 2 3 4 3 3 2 2 3 4 3
17 17 18 17 16 18 17 17 19 19 17 11 5 6 11 13 12 9 5 4 5 6 6 6 5 5 6 8 8 7 9 10 9 7 7 9 9 9 10 8 6 5 8 8 7 10 10 7 6 7 6 7 6 5 7 7 4 1 1 2 3 2 1 2 1 2 3 3 7 10 10 7 5 3 3 5 3 3 3 4 5 7 4 2 3 3 3
17 16 17 16 16 17 16 15 17 17 16 12 6 7 11 12 9 6 4 4 5 5 5 5 4 5 9 13 12 10 10 12 10 5 5 9 7 10 15 13 3 2 3 6 8 10 6 2 4 7 6 7 8 7 8 7 3 1 1 2 2 2 3 2 0 1 3 5 5 7 8 4 3 4 1 3 4 4 5 5 8 10 6 5 5 4 4
17 16 16 16 16 17 16 14 14 15 13 11 8 9 11 12 9 5 3 4 6 5 5 5 7 10 13 14 14 14 14 15 11 5 6 9 6 8 11 11 6 4 6 11 13 12 9 5 5 5 7 9 7 5 10 9 2 1 5 5 2 2 3 2 1 1 2 4 2 2 3 4 5 5 1 5 7 6 7 9 10 9 7 8 9 7 6
16 16 16 16 16 16 16 14 13 13 12 12 10 9 10 12 9 4 2 4 5 5 6 8 10 13 14 13 13 15 16 14 10 6 7 7 7 7 7 7 6 6 9 14 14 8 6 5 3 4 6 7 2 4 7 4 6 6 3 6 6 6 4 2 1 1 1 3 2 0 3 5 1 4 4 6 8 4 5 8 8 7 7 8 10 8 6
15 16 16 16 16 15 16 15 13 12 11 11 11 11 10 11 8 4 3 3 4 5 7 7 8 11 14 14 13 11 12 13 9 6 6 6 6 7 7 5 8 8 7 9 8 4 4 4 3 4 5 2 2 4 6 7 8 10 8 3 2 5 4 3 1 0 2 1 3 3 5 6 2 3 2 3 5 3 5 5 2 3 5 7 9 9 6
15 15 15 15 15 15 14 14 13 12 11 11 12 11 10 12 9 4 2 3 4 5 5 3 6 12 14 13 12 9 7 8 8 7 7 6 6 7 6 5 7 10 8 6 3 3 3 2 2 2 2 1 0 1 1 2 5 6 4 6 3 3 5 5 3 2 2 1 3 3 3 4 2 2 2 4 6 5 7 6 1 3 4 6 9 9 7
14 15 15 14 15 14 14 14 13 11 11 12 12 11 10 9 9 6 4 4 3 4 4 5 10 13 10 9 12 10 5 4 6 6 6 7 8 11 10 5 5 8 9 6 1 3 2 2 2 2 1 1 2 2 1 1 1 3 2 4 5 2 5 5 4 3 2 2 1 3 2 2 3 3 0 5 6 5 7 6 1 3 3 6 9 8 7
13 14 15 14 14 14 14 14 12 10 10 11 11 12 10 6 6 6 4 2 3 5 8 10 12 10 6 6 9 9 5 4 4 3 3 6 8 11 11 7 4 7 8 5 1 2 2 0 2 3 2 2 1 1 0 1 1 1 2 4 6 4 2 2 3 3 3 3 2 3 1 1 3 2 4 6 7 7 6 3 3 3 3 5 7 8 7
12 13 15 14 14 14 14 14 12 9 10 11 10 12 11 5 5 6 5 3 3 5 7 10 10 7 5 6 7 7 6 6 4 2 3 4 4 7 10 9 4 4 6 3 1 2 1 1 2 3 3 3 2 1 1 1 2 1 1 1 3 3 2 0 2 2 4 4 4 3 1 2 4 4 7 6 6 6 3 3 5 3 4 4 5 8 7
12 13 15 14 13 13 13 13 12 9 10 11 10 11 10 5 2 4 4 3 3 4 7 12 12 9 8 8 6 5 7 8 6 3 3 3 4 8 10 7 3 3 3 2 2 3 0 2 2 2 2 3 3 1 1 2 2 3 2 0 1 2 3 2 2 1 3 4 4 2 1 3 4 3 6 6 4 1 2 4 4 4 5 5 5 7 6
13 13 14 13 13 12 12 12 11 10 10 9 8 10 10 5 3 5 5 4 4 6 9 11 11 10 9 7 6 6 7 7 6 5 3 3 6 8 6 3 4 4 2 2 1 2 1 2 2 2 3 4 2 1 0 1 2 4 4 1 1 2 1 1 1 1 2 2 2 1 1 4 3 3 5 4 1 4 4 4 5 4 4 5 5 6 6
13 13 13 13 12 12 12 12 10 9 9 8 7 9 9 6 4 3 5 4 4 4 5 8 11 14 13 12 12 11 9 8 8 6 4 4 5 5 3 3 5 4 2 3 2 1 1 2 3 2 3 3 0 0 1 0 1 1 4 2 2 1 1 1 0 0 0 1 1 2 4 5 1 4 3 1 1 4 5 6 5 3 3 4 4 5 6
13 13 13 13 13 12 12 11 10 9 8 8 7 8 9 9 10 8 6 5 5 7 11 17 21 23 25 26 24 21 18 17 16 12 6 4 3 3 4 5 4 3 2 3 3 2 2 1 2 2 3 2 1 0 1 1 0 0 3 3 3 2 2 3 2 2 2 2 4 5 5 3 4 5 5 4 3 5 6 6 5 4 2 3 5 5 6
13 13 13 12 13 12 11 10 9 8 8 8 7 7 9 11 12 11 9 7 8 11 17 22 22 21 22 25 26 26 25 24 23 19 12 5 3 4 5 5 4 3 2 3 1 2 2 1 2 2 2 3 2 1 1 1 1 1 2 4 3 2 3 4 2 1 2 1 3 4 4 6 7 6 5 6 5 5 5 6 6 5 3 4 6 6 6
13 13 12 12 12 12 10 10 10 8 8 8 7 8 9 11 10 10 9 6 5 6 10 12 9 8 11 16 20 20 20 22 24 24 18 11 5 3 3 4 4 3 2 3 2 2 2 1 1 1 3 3 3 2 1 1 1 3 2 4 4 4 5 4 2 1 1 1 3 6 8 8 9 7 5 6 5 4 5 5 5 5 5 6 7 7 7
13 12 12 12 12 11 10 10 10 9 8 8 7 8 9 10 9 9 8 6 3 3 5 5 6 11 14 15 17 16 14 18 23 24 21 16 12 7 6 9 11 7 3 4 4 3 2 2 2 2 3 4 3 2 1 3 1 3 1 1 2 2 2 1 2 2 3 2 3 7 8 8 9 7 5 5 6 5 5 6 5 6 7 7 8 8 7
13 12 11 11 11 9 8 7 8 9 8 7 7 8 9 10 10 9 8 6 4 4 5 4 7 12 15 17 20 20 20 24 23 22 23 20 18 16 12 12 14 10 4 1 3 2 2 3 2 3 4 3 2 1 2 2 1 2 1 1 2 1 1 1 2 1 1 2 4 7 8 7 6 6 5 5 6 5 6 6 7 7 8 9 9 9 8
13 12 11 10 10 8 7 7 8 8 8 8 8 9 10 11 11 9 9 7 3 2 4 4 5 12 18 21 26 27 24 23 19 12 17 18 19 19 16 10 7 6 4 2 2 2 2 3 3 3 4 3 3 2 2 3 0 2 2 2 3 3 1 1 3 1 1 0 1 2 4 4 3 5 7 6 6 7 7 7 7 8 8 9 9 9 9
12 12 10 9 9 8 7 7 7 7 7 8 8 9 11 13 13 11 11 9 6 4 4 5 7 12 16 18 23 25 21 19 15 11 12 15 17 18 14 9 6 4 3 3 2 2 3 3 3 3 3 3 3 3 1 2 0 1 2 3 3 3 2 2 3 3 2 3 4 2 5 4 4 5 7 6 6 6 7 7 8 8 8 9 10 9 9
12 11 10 8 8 8 7 6 6 5 4 5 6 8 12 15 15 13 12 10 8 6 5 6 7 7 9 13 18 22 20 17 15 15 15 14 14 15 12 7 6 5 4 3 3 3 3 3 3 3 3 1 1 1 0 1 2 3 2 5 4 3 5 4 5 4 1 2 4 5 5 5 5 6 6 6 6 6 7 8 8 7 8 9 10 9 9
11 11 9 8 7 8 7 6 5 5 5 5 5 6 7 7 7 9 11 11 10 7 4 5 5 5 6 10 14 18 19 18 18 17 17 14 11 10 9 7 6 5 4 3 3 3 3 3 3 4 5 2 2 2 1 2 3 3 1 2 2 4 7 6 6 6 3 1 4 6 6 6 6 5 5 5 5 6 7 7 8 7 7 8 9 10 11
11 10 9 7 7 8 7 6 5 5 5 5 4 3 2 0 2 4 6 7 7 6 4 4 5 5 6 7 10 14 18 20 18 15 15 14 11 10 11 8 5 5 5 3 3 3 3 3 3 4 5 4 3 2 2 2 3 2 3 2 2 5 7 6 6 7 5 4 7 8 7 7 6 5 5 5 6 7 7 7 8 9 9 11 13 14 15
10 8 7 6 7 8 7 5 5 5 6 7 8 8 7 6 4 2 1 2 3 3 3 4 4 4 4 4 6 11 16 17 13 9 8 10 9 9 10 7 4 4 5 4 3 3 3 3 3 4 4 3 2 2 2 3 4 3 6 5 4 5 6 6 8 8 6 7 8 8 6 6 5 5 5 6 7 9 8 8 11 14 13 13 15 15 16
9 8 7 7 8 8 7 6 5 6 8 10 13 16 17 15 12 8 3 1 3 4 4 3 3 4 3 4 7 12 12 9 6 4 4 5 5 5 6 5 4 4 5 5 3 2 2 3 3 4 3 2 2 2 2 3 4 4 7 7 6 5 5 6 8 8 6 6 7 7 7 7 7 6 7 7 8 10 10 11 13 14 12 11 10 10 13
8 8 8 9 9 8 7 6 6 7 7 9 12 15 15 14 13 9 7 4 4 5 4 2 3 4 4 4 5 9 9 6 5 4 4 5 5 3 3 3 3 3 4 5 3 2 2 3 3 3 3 3 3 3 3 4 5 5 6 7 6 6 6 5 6 7 7 6 5 5 6 8 8 8 7 7 8 10 12 12 12 11 10 8 7 8 11
8 9 9 9 9 9 7 6 6 6 7 9 11 13 11 9 9 11 11 8 3 3 2 3 3 3 4 4 3 5 5 2 1 3 2 3 4 3 1 1 2 3 3 3 3 2 3 3 2 3 3 3 3 3 4 5 6 5 6 6 6 6 6 4 4 5 6 7 6 5 7 10 10 9 8 7 8 10 10 9 10 10 9 8 7 9 10
8 8 8 8 8 7 7 6 5 6 7 8 8 8 6 3 4 10 12 9 6 4 2 2 3 4 4 4 3 4 5 4 2 1 0 0 1 2 1 1 2 2 1 1 2 3 3 3 3 3 4 4 4 4 4 4 5 5 7 7 6 6 6 6 6 6 7 8 8 8 9 10 9 8 7 7 7 9 9 9 9 9 10 9 8 7 8
7 8 7 6 5 5 5 7 8 9 9 7 3 2 4 4 4 7 9 8 7 6 3 2 4 5 5 4 3 4 3 2 2 2 1 1 1 1 1 2 2 1 1 2 3 3 3 3 3 4 4 4 4 3 4 5 5 5 6 7 6 6 5 5 6 8 8 9 9 9 9 9 8 7 7 7 7 8 9 8 7 8 10 10 8 7 9
7 7 6 5 4 3 3 4 5 7 10 9 3 2 4 4 3 4 4 4 5 6 4 3 5 5 4 4 6 6 4 2 1 1 1 1 2 2 1 2 1 0 2 3 3 3 3 3 2 3 4 4 3 4 5 6 6 5 5 6 6 6 6 5 6 8 10 9 8 9 9 9 8 7 7 7 8 8 8 7 7 8 10 10 10 11 12
7 6 5 5 4 2 1 1 1 3 7 8 5 2 2 3 3 3 3 3 3 4 4 5 6 6 5 6 7 7 6 4 2 1 0 1 1 1 2 2 1 1 2 2 1 1 3 3 2 3 4 4 3 4 5 5 6 6 6 6 6 6 6 5 5 7 9 10 9 8 8 8 9 8 7 6 6 7 7 7 7 10 12 13 14 14 13
6 6 5 3 2 3 5 4 1 3 4 4 3 2 2 2 3 2 2 3 3 3 3 4 5 6 8 8 7 6 7 5 2 1 2 1 1 1 1 1 1 1 2 2 1 1 1 2 2 3 4 4 4 5 6 6 6 6 6 6 6 6 6 5 4 7 9 10 10 9 8 8 7 6 6 7 6 6 7 7 8 11 14 15 16 16 15
4 4 4 4 7 10 10 6 2 4 3 2 2 2 2 2 3 2 2 3 4 3 3 4 4 5 7 8 6 6 6 5 1 1 2 1 0 1 1 1 0 1 2 2 0 1 1 2 3 4 4 4 4 5 6 7 7 6 6 6 6 6 6 5 6 9 12 12 9 8 10 11 8 6 7 9 7 6 7 9 11 14 16 16 17 17 17
7 7 8 11 13 11 8 4 2 2 2 1 1 2 2 3 3 3 3 3 4 2 3 5 5 5 7 8 7 5 4 3 1 0 0 1 1 1 0 1 1 2 2 1 1 1 0 2 3 4 4 4 5 6 7 8 7 7 7 7 6 6 7 6 5 9 13 13 9 7 10 12 10 9 10 11 10 10 11 13 13 14 17 19 20 18 17
10 10 9 9 7 4 2 1 2 2 2 1 1 2 3 3 3 3 3 2 2 2 2 3 3 4 6 7 5 3 2 1 0 0 0 0 0 0 1 1 1 1 0 0 1 2 2 2 3 4 4 4 4 6 7 7 7 6 6 7 7 8 8 7 6 8 13 14 13 12 14 14 13 14 15 14 12 12 15 18 18 17 18 21 22 19 20
8 7 5 3 3 1 1 1 2 2 2 2 2 3 4 4 4 4 3 2 1 3 2 2 1 2 2 2 2 1 1 0 1 0 0 0 1 1 2 2 1 0 0 1 2 3 3 3 4 4 2 2 2 4 6 7 7 7 6 6 7 8 8 7 7 7 9 11 13 14 15 14 14 16 17 16 16 15 16 19 20 20 20 21 21 21 23
4 2 1 1 1 0 1 1 1 2 3 3 3 3 5 5 4 2 2 2 3 4 3 1 1 1 1 1 0 0 0 0 0 1 1 1 2 2 1 0 0 0 1 2 3 3 3 4 4 3 3 3 3 3 4 5 6 6 7 7 8 8 7 7 7 5 5 8 11 13 13 13 13 14 15 17 19 19 18 20 22 23 21 20 20 22 25
2 1 1 1 2 1 1 1 2 2 3 3 4 5 6 6 4 2 3 3 4 5 5 3 2 1 1 1 0 0 1 1 1 1 1 1 2 1 0 0 0 1 2 2 4 4 4 3 2 1 2 3 4 3 4 5 5 6 7 7 7 7 7 7 7 5 6 9 12 13 13 14 15 15 15 17 19 19 19 22 25 26 23 19 20 24 26
2 1 1 1 2 2 2 3 3 3 3 4 4 3 3 4 4 3 2 3 3 4 4 3 3 1 1 1 1 1 2 1 1 0 1 1 1 0 0 1 2 2 2 3 4 4 3 3 3 2 2 2 3 4 4 4 4 5 5 5 5 6 7 7 6 6 8 10 12 12 13 15 17 16 17 17 18 20 22 24 25 26 23 21 23 26 26
1 1 1 2 2 3 4 4 4 5 5 5 3 1 0 3 5 3 1 1 2 3 3 3 3 1 1 1 1 1 1 0 1 1 1 1 1 1 1 2 3 3 3 4 5 4 3 4 4 4 3 3 3 3 4 4 4 4 5 5 5 6 7 8 7 8 10 11 10 10 13 17 17 16 16 18 18 19 23 26 26 25 23 22 24 26 25
2 1 1 2 2 3 4 4 5 5 5 4 4 3 2 4 4 3 2 1 1 1 2 3 4 2 0 1 0 1 1 1 1 1 1 1 2 2 1 3 4 3 3 3 4 2 1 2 3 3 3 3 3 3 3 4 4 4 5 5 6 6 7 7 8 10 13 13 11 11 14 17 17 16 16 17 17 18 21 24 25 25 23 23 25 25 24
2 1 2 3 4 4 5 5 5 4 3 3 3 3 4 4 4 3 1 1 1 2 1 2 3 3 1 1 0 1 2 2 2 2 2 3 3 2 3 4 4 2 1 2 2 1 3 3 2 2 2 3 3 3 3 4 4 5 6 5 6 7 9 10 11 12 13 14 14 15 16 17 17 16 13 12 14 19 22 22 22 23 24 25 25 24 25
2 2 2 4 6 5 5 5 5 5 5 4 3 2 3 3 3 2 1 1 2 2 2 2 2 2 1 2 1 1 1 2 2 3 3 3 3 3 3 4 2 2 3 3 2 2 4 3 2 2 2 1 2 1 1 1 1 2 3 3 4 6 9 12 13 13 13 14 16 17 16 17 18 19 17 15 14 15 16 16 16 17 21 25 26 25 25
2 2 3 5 6 6 6 6 6 6 6 5 2 1 1 2 2 1 1 1 1 1 2 2 2 1 1 1 1 1 1 1 2 3 4 3 2 2 2 2 1 2 3 4 3 1 3 3 3 3 3 2 3 3 4 4 4 3 2 2 6 9 8 9 11 13 14 14 14 14 15 18 20 23 24 22 17 12 11 12 13 13 15 20 24 25 25
Wind_Direction
329 332 337 341 344 346 348 352 357 358 356 355 354 347 308 277 300 294 280 174 169 196 246 233 229 222 241 250 254 261 265 264 271 282 278 165 172 248 270 275 279 284 321 315 317 58 23 282 297 47 62 77 94 97 87 55 348 29 42 27 352 331 358 353 316 299 319 311 303 345 23 61 98 113 176 157 137 135 152 173 138 110 284 309 23 311 284
330 333 337 342 343 345 348 353 359 2 4 2 354 340 306 318 279 288 285 208 181 235 256 239 261 240 239 248 249 254 259 259 259 263 261 237 180 210 242 249 243 242 279 290 289 70 115 253 292 49 76 87 130 124 123 140 93 81 125 138 0 330 12 33 357 334 345 340 339 358 358 357 95 149 275 177 147 126 103 83 74 79 301 340 36 245 253
333 334 338 341 341 343 345 350 358 0 2 2 355 329 289 302 239 256 277 237 209 238 253 258 273 263 259 254 253 258 256 252 253 259 276 272 247 227 242 245 244 244 245 256 286 323 114 188 333 39 104 174 198 160 141 136 101 112 150 135 84 122 123 60 38 342 334 328 311 307 317 320 298 323 1 0 99 108 100 87 82 115 331 355 10 200 170
334 334 336 339 337 339 341 345 354 358 357 358 351 309 278 317 284 261 273 236 210 227 252 264 267 274 282 278 278 280 277 266 239 212 236 268 258 248 247 241 246 250 250 246 263 274 225 161 334 16 107 250 161 132 132 126 109 112 118 62 55 102 114 152 204 235 239 237 255 268 269 274 268 271 46 17 16 93 117 128 157 176 152 12 27 127 102
334 335 336 338 335 334 338 341 348 355 354 351 345 294 249 305 287 299 339 310 235 227 237 250 249 252 262 269 281 280 281 288 254 186 190 235 243 246 244 237 232 223 231 232 211 222 239 243 278 247 171 260 164 148 157 140 119 120 137 134 111 83 105 210 216 225 239 242 255 276 276 269 277 352 69 29 338 359 69 209 181 140 92 9 221 145 114
334 336 336 337 336 333 337 339 342 351 352 346 342 279 252 277 282 330 357 343 305 312 288 283 276 258 251 247 258 267 273 283 278 199 183 204 213 226 244 250 257 255 259 260 185 177 213 236 263 247 197 235 192 158 153 135 137 151 178 154 130 118 217 238 253 264 277 284 292 302 302 296 311 339 79 108 333 332 317 298 145 113 115 219 208 108 109
334 337 335 337 338 336 338 340 342 348 348 339 310 228 284 305 301 337 353 336 311 313 304 306 308 290 279 267 247 257 266 272 277 273 235 213 190 185 240 261 265 266 270 293 0 128 197 214 251 255 270 323 327 108 94 124 161 182 182 148 135 129 192 231 320 317 306 303 301 308 314 306 304 299 241 87 321 292 326 342 94 115 129 171 101 85 90
335 337 336 336 338 339 340 342 345 350 351 345 235 220 288 335 336 336 338 322 311 310 307 312 315 304 301 296 270 265 262 262 272 278 267 240 190 192 218 235 249 261 261 258 270 279 273 256 262 249 233 295 303 187 138 150 204 221 180 124 128 130 180 185 138 292 281 276 274 275 267 259 276 302 24 30 358 329 356 5 41 80 72 62 66 81 89
335 338 337 337 339 341 344 346 349 355 0 355 297 290 335 343 342 339 321 305 317 317 311 310 307 303 299 287 284 285 279 280 288 286 288 294 281 257 239 224 227 258 266 243 231 245 243 231 234 218 196 202 191 159 183 181 198 214 156 115 131 150 204 172 112 247 257 273 290 296 290 288 316 355 44 43 17 23 32 351 359 55 81 75 62 89 113
335 338 338 339 342 343 346 350 352 358 7 7 333 330 349 346 342 341 320 290 305 306 302 299 289 286 287 283 277 272 279 294 296 291 300 295 291 311 309 275 213 211 254 257 250 251 238 215 228 233 204 185 179 199 213 199 195 232 78 109 139 141 36 36 62 261 266 314 323 329 339 340 326 325 40 47 34 54 29 351 30 51 53 86 90 119 134
335 336 338 340 342 343 344 348 352 359 8 10 343 316 335 343 337 332 320 295 300 305 302 296 286 287 296 300 300 294 288 285 275 271 285 277 292 342 334 319 321 154 260 297 302 295 295 277 251 250 230 200 191 210 231 216 190 208 132 109 108 96 70 50 82 257 302 315 324 342 349 337 249 243 218 78 48 42 35 35 61 64 68 101 108 115 111
335 334 337 338 337 340 341 341 348 356 359 358 336 303 314 332 326 311 313 306 302 306 304 307 321 317 306 305 310 309 297 281 275 303 310 288 311 347 328 322 339 359 350 336 318 315 327 307 260 261 251 228 208 236 246 227 186 124 150 140 131 122 116 120 143 137 299 302 308 14 325 249 223 255 256 98 73 49 53 54 58 65 79 98 97 95 96
336 335 335 336 333 335 337 335 338 346 350 349 333 304 311 329 322 301 315 305 290 303 316 317 321 316 308 307 310 310 307 297 293 325 330 317 334 327 297 305 327 339 347 330 312 319 350 336 333 341 292 255 247 319 287 295 358 324 232 162 160 170 153 129 122 112 49 353 353 179 265 256 176 16 14 79 79 66 80 65 43 43 62 85 97 101 104
335 334 334 335 332 331 334 335 332 335 344 344 328 316 322 324 314 310 336 307 280 306 319 313 316 322 322 320 313 310 323 328 327 343 342 321 305 286 273 306 330 331 332 322 319 356 21 0 6 346 319 323 24 339 331 348 331 297 294 324 146 161 140 103 87 105 99 11 304 280 292 302 22 56 17 98 91 84 110 102 18 18 58 84 107 115 125
333 332 331 331 330 328 330 332 330 330 337 338 330 323 320 318 316 310 304 297 300 306 290 266 322 332 329 325 320 315 327 340 342 347 345 329 303 296 309 333 326 318 312 308 344 29 7 354 9 322 320 13 9 270 310 313 272 264 299 335 329 150 136 128 131 149 129 81 315 299 302 301 274 205 204 109 97 101 108 108 320 336 59 89 110 123 148
329 331 329 328 328 325 324 325 326 326 329 334 334 320 307 319 334 327 297 290 288 274 273 311 332 327 315 317 327 329 334 342 344 343 342 344 337 325 322 308 272 284 296 296 347 71 41 356 318 290 251 230 242 227 182 151 281 310 332 326 332 40 122 137 128 122 108 88 327 283 285 290 266 242 142 76 87 99 93 86 324 295 69 96 114 134 161
326 328 327 326 324 322 322 321 320 322 325 333 333 316 305 332 358 334 306 283 265 265 283 308 317 311 310 335 338 337 336 329 347 10 340 333 335 325 322 320 271 245 259 276 339 56 59 298 290 287 272 277 274 215 133 123 149 312 334 339 349 16 108 142 104 122 155 159 202 251 240 260 285 320 38 46 59 67 65 72 237 238 81 93 128 151 162
324 325 325 324 321 319 321 318 314 315 323 329 326 309 305 337 0 318 289 274 276 263 274 298 307 309 334 345 330 326 327 321 331 17 315 312 331 330 328 330 314 254 253 259 109 83 320 250 262 275 270 271 262 186 134 131 166 161 103 19 357 350 292 21 81 145 181 175 207 233 159 257 299 16 29 17 36 57 67 203 206 171 118 114 138 150 153
324 324 324 322 318 316 317 315 310 311 317 323 323 306 296 301 325 304 291 274 260 263 292 309 311 314 334 339 323 320 329 327 330 338 316 322 352 341 330 321 310 297 288 270 141 134 218 263 250 284 287 271 271 246 157 158 160 137 123 105 354 333 305 346 40 253 212 184 200 196 84 266 254 70 36 15 42 97 210 183 150 141 143 137 131 140 151
326 324 323 321 318 316 315 310 306 308 312 314 315 306 298 291 256 257 267 276 281 284 289 289 288 302 327 333 316 318 329 329 335 347 346 344 347 345 344 348 346 335 309 305 101 135 176 265 253 259 259 248 268 327 270 158 149 129 118 126 204 175 230 319 351 270 245 230 222 159 168 259 242 97 45 13 122 189 186 136 125 138 139 128 122 134 149
326 325 323 321 316 313 314 309 301 304 308 305 307 305 306 333 4 287 265 280 297 285 282 292 302 310 309 294 282 286 288 285 293 313 336 340 339 342 342 346 344 333 318 330 324 170 161 259 249 250 267 262 49 348 243 178 38 102 117 143 246 196 163 234 302 99 76 334 265 193 204 230 219 104 124 188 188 161 139 126 135 141 122 119 122 131 142
322 320 319 320 315 311 311 305 297 297 297 298 306 296 288 315 347 349 331 305 273 263 280 294 297 292 286 282 277 269 261 261 268 277 291 315 323 307 299 315 321 299 329 5 335 323 29 335 275 313 314 303 19 220 230 166 3 235 145 174 235 263 180 171 157 178 209 199 200 210 206 169 102 103 131 129 92 111 124 123 127 130 122 121 122 125 129
321 317 314 314 313 309 305 298 295 295 291 292 297 290 286 303 324 338 337 310 277 272 275 276 279 282 280 279 278 271 261 256 256 256 257 267 300 296 285 298 311 301 350 45 13 303 342 346 327 341 311 292 344 0 264 172 186 208 161 175 201 205 173 163 153 212 278 251 164 154 120 110 107 99 111 119 108 107 111 105 113 132 143 126 123 129 131
321 318 313 311 310 307 299 292 290 288 289 290 283 277 287 296 308 325 326 301 278 291 278 260 256 268 268 272 281 277 260 248 248 248 243 235 242 281 275 263 284 319 28 39 345 306 300 285 282 286 276 289 309 292 215 114 234 236 193 172 180 179 178 186 191 159 107 37 127 119 108 118 123 110 99 110 104 91 93 102 114 123 120 118 122 128 127
323 319 314 311 310 305 296 291 288 281 283 287 278 276 284 290 301 322 322 299 282 306 301 280 270 274 278 290 297 291 278 271 259 242 231 227 226 231 256 273 285 307 17 23 348 339 327 303 289 275 278 285 285 273 93 79 313 275 245 160 185 187 186 229 249 191 169 181 146 108 98 109 122 122 119 115 108 94 89 98 106 104 103 111 118 120 122
324 318 314 313 313 306 296 294 293 286 281 277 272 273 277 282 296 311 308 302 297 272 272 278 280 294 316 325 311 297 296 297 276 232 213 221 227 226 237 264 283 299 330 3 317 305 282 284 283 271 278 287 298 313 122 141 227 286 292 221 195 153 82 140 186 240 352 83 95 85 79 85 107 123 125 121 123 122 109 106 111 109 109 115 119 123 129
324 319 317 317 314 307 298 301 304 294 280 270 267 270 270 274 286 292 286 288 294 260 264 266 288 317 328 318 301 293 290 293 287 239 212 221 224 222 225 232 255 291 303 276 282 277 248 262 264 251 266 298 321 325 144 143 105 339 294 246 195 164 183 165 149 137 1 105 149 86 93 116 152 142 129 125 130 131 126 122 121 122 124 126 127 130 133
323 320 317 314 312 309 301 303 311 303 278 261 260 268 271 269 269 268 267 270 272 278 296 294 296 313 316 302 296 298 291 281 279 266 247 238 224 218 223 222 217 237 244 236 265 267 242 259 266 248 248 275 291 296 95 107 90 275 267 271 238 175 154 119 122 128 163 192 191 137 109 134 173 150 129 129 130 126 124 123 122 126 133 134 136 139 138
321 318 313 308 310 311 302 294 301 304 287 269 269 279 278 270 262 253 249 254 259 266 294 299 282 291 308 304 301 302 296 284 271 257 252 251 237 222 219 218 215 221 218 214 236 245 242 259 273 273 273 246 219 248 90 131 222 225 248 281 262 167 122 108 121 127 141 186 151 124 115 137 158 146 130 130 130 124 120 119 119 127 140 143 147 149 144
320 315 306 300 303 307 303 286 274 276 282 281 281 281 275 263 247 233 231 239 245 243 271 301 286 289 311 302 289 285 283 283 277 255 235 234 245 238 224 216 210 210 223 233 231 231 241 244 248 264 273 260 226 241 217 196 216 202 171 287 267 123 102 91 112 131 160 171 111 106 115 127 133 133 129 130 131 124 116 117 124 134 138 134 134 139 140
323 315 302 296 298 302 299 280 258 260 270 269 264 265 270 99 114 161 199 221 232 234 258 282 280 294 295 261 250 259 261 262 269 259 224 212 224 235 232 227 207 186 202 227 232 236 250 247 239 255 258 237 225 247 242 230 244 209 150 142 128 117 109 100 110 125 139 127 105 100 109 121 126 135 143 143 136 124 117 121 129 126 116 111 114 125 135
323 318 307 299 298 299 294 273 254 250 248 245 248 261 272 287 315 343 131 173 202 225 267 280 275 293 293 252 259 272 258 245 254 265 227 199 205 216 217 219 216 193 190 197 210 222 232 239 249 266 268 242 222 232 227 233 247 203 156 143 131 123 122 118 119 123 131 131 121 112 118 139 155 160 154 145 134 126 124 128 128 119 110 107 110 115 124
321 318 311 307 309 307 295 275 259 255 253 253 258 262 263 265 273 280 276 240 245 249 261 285 284 272 272 296 307 294 269 236 227 255 229 191 190 202 197 197 212 205 185 182 194 212 208 216 235 245 245 233 240 252 238 234 236 195 159 148 140 135 129 120 122 132 150 153 140 136 154 169 167 150 137 131 129 132 134 134 131 126 119 118 116 108 107
313 307 300 299 303 301 295 285 272 267 269 266 263 264 264 261 257 243 206 196 253 264 244 249 279 277 277 294 298 280 259 215 175 197 221 194 181 188 189 183 192 198 189 181 175 188 211 220 238 248 233 198 203 229 236 238 236 201 160 150 143 137 129 120 126 143 163 173 166 155 155 150 136 129 135 135 133 138 139 135 137 139 132 127 129 119 110
307 301 294 292 293 293 296 294 279 268 266 259 255 262 270 268 247 217 193 187 226 267 234 228 250 273 282 283 289 301 307 312 165 195 221 184 168 174 196 184 185 193 196 182 173 193 209 199 214 249 249 219 211 216 215 230 238 206 160 151 146 138 137 149 162 158 158 165 167 148 132 132 133 139 151 152 142 141 142 144 148 146 135 130 133 128 124
302 297 295 296 297 299 296 275 244 235 247 254 252 252 256 255 207 195 194 203 231 254 275 286 253 249 266 276 292 324 333 332 317 245 224 90 187 189 194 245 220 199 179 191 211 218 195 163 181 229 237 230 230 215 192 204 221 193 165 162 163 158 160 171 172 154 135 135 139 132 130 139 145 146 151 155 148 142 145 155 159 148 138 137 135 129 133
294 292 296 300 295 282 263 237 219 218 230 239 232 183 171 149 148 179 198 216 228 227 241 289 261 256 276 290 294 305 313 315 320 330 12 15 334 236 199 225 226 196 185 212 224 226 203 175 189 219 224 227 233 212 177 173 184 181 173 172 169 168 174 179 167 149 135 131 134 137 142 145 145 146 152 157 154 149 152 161 163 151 144 142 137 138 147
285 285 287 285 272 252 233 226 230 231 226 221 209 146 158 167 178 196 200 206 203 196 202 241 247 251 265 268 274 292 308 322 330 334 15 23 355 327 272 249 236 248 244 226 207 201 207 205 212 230 232 228 219 203 185 181 185 187 185 182 177 172 179 188 169 147 142 146 152 154 153 150 148 152 160 163 160 156 155 155 154 151 148 143 141 148 153
282 281 266 249 244 260 314 344 291 208 201 203 213 233 198 190 213 216 189 189 199 191 200 225 232 231 236 245 259 274 276 266 260 280 2 1 334 318 297 290 324 349 291 261 212 185 213 217 214 230 238 233 215 204 194 185 185 184 178 182 187 178 175 185 176 150 150 160 162 150 139 143 150 156 162 166 163 151 144 146 152 154 152 147 145 152 160
260 259 247 229 248 324 339 344 201 189 193 194 208 237 225 200 215 215 181 190 209 204 204 220 221 212 218 231 247 260 262 261 258 172 170 195 264 259 237 253 308 301 254 254 313 347 273 243 219 223 233 230 216 204 191 180 181 184 181 184 187 177 168 171 153 129 137 154 158 141 123 125 136 149 160 164 161 152 149 149 147 147 149 149 148 155 164
253 249 258 295 313 316 319 316 248 210 227 229 204 219 229 213 217 230 217 214 222 217 200 206 210 205 209 217 229 252 264 266 247 147 168 176 192 236 212 184 270 278 250 226 90 28 329 264 244 237 230 213 194 189 188 183 181 183 182 179 176 165 155 147 126 121 132 149 161 155 144 141 141 152 168 168 164 155 145 140 143 150 153 151 151 157 162
287 293 301 307 305 298 291 283 240 204 218 232 216 230 239 220 211 224 228 231 243 238 182 189 206 208 200 199 203 221 244 246 213 120 243 208 184 224 235 119 206 250 238 179 126 111 179 240 250 253 240 212 183 175 184 189 185 179 175 175 173 163 154 149 139 136 143 152 158 159 158 157 159 169 172 165 156 148 140 136 144 154 155 151 153 158 158
291 293 296 297 290 269 219 210 212 195 197 205 196 230 249 236 219 222 224 221 240 245 203 189 207 204 188 185 190 200 211 208 142 60 305 238 196 238 208 180 191 243 278 123 164 184 193 220 238 247 250 236 202 183 185 189 187 182 174 169 167 166 163 161 153 146 149 154 157 160 165 168 171 172 166 151 137 138 143 145 150 153 151 150 153 156 156
299 289 276 262 247 201 121 146 203 195 206 217 203 215 239 234 218 219 226 223 247 250 226 184 212 240 210 171 173 182 161 105 36 57 107 205 215 215 214 206 196 231 246 225 219 218 220 230 231 223 217 226 209 193 189 187 185 182 174 162 160 163 165 163 157 151 152 153 152 155 163 169 168 166 159 144 131 131 140 147 150 152 152 150 150 153 156
297 270 235 284 290 260 120 179 216 207 217 228 218 222 242 247 238 233 266 317 321 311 312 354 206 255 295 20 41 197 187 243 231 179 189 232 226 216 217 235 13 278 258 247 235 227 228 238 239 213 173 172 194 196 180 172 171 166 159 157 162 166 165 163 157 149 146 144 141 142 150 157 158 159 159 150 140 137 143 148 150 153 156 155 151 154 160
270 249 179 270 286 265 211 215 223 209 211 223 224 231 253 271 292 332 339 331 337 345 345 331 295 222 161 116 105 187 219 233 206 151 163 213 225 229 305 46 212 247 255 245 240 238 234 232 233 199 149 166 180 165 135 133 147 152 151 158 167 164 158 156 152 137 131 138 141 141 147 155 159 162 163 153 140 136 144 150 152 156 160 159 155 157 162
252 262 232 227 258 252 230 228 237 243 248 252 249 249 280 305 310 315 319 322 343 8 357 312 280 235 147 135 151 186 210 213 190 159 249 227 205 210 300 247 223 226 234 237 240 244 234 208 201 207 205 198 186 158 133 131 144 149 147 155 163 153 143 145 144 132 127 133 137 140 149 158 164 167 163 151 143 146 152 152 153 159 164 161 158 160 162
239 257 226 217 232 234 228 235 255 264 267 278 289 310 335 286 286 295 352 25 4 4 348 311 285 261 128 121 174 219 243 219 201 227 270 276 185 167 210 235 233 223 223 238 246 247 230 203 190 186 193 204 192 160 142 144 160 164 161 165 168 154 145 149 151 137 126 124 127 137 150 157 163 166 160 148 149 160 161 154 153 162 166 161 159 161 159
265 287 238 233 262 267 258 259 265 269 278 303 325 329 292 275 290 325 17 39 316 331 335 314 298 283 262 90 189 229 239 249 234 218 204 216 219 207 210 240 243 234 224 242 257 258 200 177 158 146 159 183 192 178 160 161 171 177 176 178 174 158 148 155 158 147 137 133 132 137 146 151 156 161 158 153 157 168 166 155 154 162 168 164 161 160 157
236 245 239 248 262 271 272 268 266 273 297 320 323 315 310 312 324 342 346 315 333 0 344 291 275 260 223 118 90 248 226 200 191 196 199 206 218 224 231 244 256 281 312 292 303 41 96 125 138 142 159 178 187 187 180 177 181 185 189 195 189 171 162 162 157 145 141 144 144 143 144 148 151 152 150 150 158 166 166 160 159 164 168 168 164 159 156
222 235 242 244 250 263 279 284 284 291 298 293 284 301 323 320 312 308 313 355 14 0 310 264 259 255 207 159 163 239 235 191 189 214 222 217 219 233 244 252 278 336 337 317 329 66 88 99 111 103 83 47 22 29 49 56 86 164 175 163 128 126 144 156 152 141 137 143 145 144 143 142 143 142 141 142 152 160 163 165 169 170 169 168 166 162 159
226 243 251 247 246 252 262 269 274 278 281 279 276 303 313 289 270 275 313 340 346 285 261 253 253 261 248 219 218 247 247 230 223 226 226 220 217 232 249 264 313 351 334 324 332 56 90 84 81 85 80 59 41 35 27 25 28 20 359 67 99 110 132 154 152 142 137 136 137 141 142 140 140 144 148 153 160 166 163 167 174 173 164 164 166 164 161